FW3227 Weather Reports


Display with metric or nautical units.
time (UTC)temp
F
wind
direction
speed
MPH
gust
MPH
rain 1hr
in
rain 24hr
in
rain mn
in
humidity
%
barometer
mb
20260503192511 74 176 0.0 4.0 0.00 0.00 0.00 13 1007.0
20260503192015 74 174 0.0 4.0 0.00 0.00 0.00 13 1006.9
20260503191509 75 258 0.0 7.0 0.00 0.00 0.00 13 1007.0
20260503191010 75 264 0.0 10.0 0.00 0.00 0.00 14 1007.2
20260503190508 74 259 1.0 10.0 0.00 0.00 0.00 15 1007.3
20260503190005 73 260 0.0 10.0 0.00 0.00 0.00 15 1007.4
20260503185504 73 260 2.0 10.0 0.00 0.00 0.00 15 1007.7
20260503185005 72 268 0.0 0.0 0.00 0.00 0.00 15 1007.6
20260503184503 72 268 0.0 10.0 0.00 0.00 0.00 14 1007.7
20260503184104 72 268 1.0 10.0 0.00 0.00 0.00 17 1007.9
20260503183558 72 259 0.0 13.0 0.00 0.00 0.00 19 1007.9
20260503183114 71 257 3.0 14.0 0.00 0.00 0.00 17 1007.9
20260503182555 71 254 3.0 12.0 0.00 0.00 0.00 18 1008.0
20260503182054 71 263 0.0 8.0 0.00 0.00 0.00 19 1008.2
20260503181553 70 263 1.0 12.0 0.00 0.00 0.00 19 1008.3
20260503181052 70 262 1.0 10.0 0.00 0.00 0.00 19 1008.3
20260503180653 70 254 0.0 9.0 0.00 0.00 0.00 19 1008.4
20260503180050 69 262 0.0 14.0 0.00 0.00 0.00 18 1008.5
20260503175548 69 259 0.0 10.0 0.00 0.00 0.00 21 1008.6
20260503175050 69 243 1.0 10.0 0.00 0.00 0.00 21 1008.6
20260503174545 68 254 0.0 15.0 0.00 0.00 0.00 21 1008.7
20260503174044 68 264 3.0 15.0 0.00 0.00 0.00 21 1008.9
20260503173543 68 256 0.0 9.0 0.00 0.00 0.00 21 1009.0
20260503173109 67 256 1.0 13.0 0.00 0.00 0.00 20 1009.1
20260503172545 67 256 1.0 14.0 0.00 0.00 0.00 20 1009.2
20260503172040 67 256 4.0 14.0 0.00 0.00 0.00 20 1009.3
20260503171542 67 257 1.0 12.0 0.00 0.00 0.00 21 1009.6
20260503171039 67 250 2.0 13.0 0.00 0.00 0.00 20 1009.6
20260503170539 67 254 4.0 14.0 0.00 0.00 0.00 20 1009.7
20260503150519 61 247 0.0 0.0 0.00 0.00 0.00 29 1010.4
20260503131058 43 216 0.0 0.0 0.00 0.00 0.00 54 1011.1
20260503130557 42 216 0.0 0.0 0.00 0.00 0.00 55 1011.1
20260503110542 40 216 0.0 0.0 0.00 0.00 0.00 57 1010.4
20260503081513 46 216 0.0 0.0 0.00 0.00 0.00 38 1011.6
20260503081011 46 216 0.0 0.0 0.00 0.00 0.00 37 1011.7
20260503080510 47 216 0.0 0.0 0.00 0.00 0.00 38 1011.6
20260503072559 50 216 0.0 0.0 0.00 0.00 0.00 31 1012.0
20260503072058 50 216 0.0 0.0 0.00 0.00 0.00 30 1012.0
20260503071616 51 216 0.0 0.0 0.00 0.00 0.00 30 1012.1
20260503071056 51 216 0.0 0.0 0.00 0.00 0.00 30 1012.2
20260503070556 51 216 0.0 0.0 0.00 0.00 0.00 30 1012.3
20260503070107 51 216 0.0 0.0 0.00 0.00 0.00 30 1012.3
20260503055046 52 177 0.0 6.0 0.00 0.00 0.00 29 1012.6
20260503054546 52 184 0.0 6.0 0.00 0.00 0.00 30 1012.7
20260503054046 52 195 0.0 8.0 0.00 0.00 0.00 30 1012.7
20260503053546 52 172 0.0 11.0 0.00 0.00 0.00 30 1012.6
20260503053045 52 206 0.0 11.0 0.00 0.00 0.00 29 1012.6
20260503052545 52 175 0.0 12.0 0.00 0.00 0.00 29 1012.6
20260503052045 52 165 1.0 12.0 0.00 0.00 0.00 29 1012.5
20260503051545 52 171 0.0 4.0 0.00 0.00 0.00 29 1012.6
20260503051045 52 179 0.0 4.0 0.00 0.00 0.00 29 1012.6
20260503050544 52 194 0.0 10.0 0.00 0.00 0.00 29 1012.6
20260503050046 52 168 0.0 10.0 0.00 0.00 0.00 29 1012.7
20260503045546 52 166 0.0 8.0 0.00 0.00 0.00 29 1012.7
20260503045047 52 181 0.0 10.0 0.00 0.00 0.00 29 1012.7
20260503044544 52 156 0.0 10.0 0.00 0.00 0.00 29 1012.8
20260503044043 52 189 0.0 6.0 0.00 0.00 0.00 29 1012.8
20260503043543 52 195 0.0 12.0 0.00 0.00 0.00 29 1012.9
20260503043044 53 170 3.0 12.0 0.00 0.00 0.00 29 1012.9
20260503042543 53 173 1.0 6.0 0.00 0.00 0.00 29 1013.0
20260503042043 53 152 0.0 11.0 0.00 0.00 0.00 29 1013.0
20260503041546 54 152 1.0 11.0 0.00 0.00 0.00 28 1013.0
20260503041041 54 156 0.0 6.0 0.00 0.00 0.00 28 1012.9
20260503040542 54 159 0.0 11.0 0.00 0.00 0.00 27 1013.0
20260503040050 55 154 1.0 13.0 0.00 0.00 0.00 27 1013.0
20260503035541 55 141 1.0 13.0 0.00 0.00 0.00 26 1013.0
20260503035043 55 163 2.0 12.0 0.00 0.00 0.00 26 1012.9
20260503034558 55 160 0.0 11.0 0.00 0.00 0.00 26 1012.9
20260503034041 56 206 1.0 12.0 0.00 0.00 0.00 26 1012.9
20260503033540 56 152 1.0 12.0 0.00 0.00 0.00 26 1012.9
20260503033044 56 164 0.0 9.0 0.00 0.00 0.00 26 1012.9
20260503032540 56 155 1.0 9.0 0.00 0.00 0.00 26 1012.8
20260503032041 56 124 1.0 11.0 0.00 0.00 0.00 27 1012.9
20260503031542 56 158 3.0 11.0 0.00 0.00 0.00 27 1012.8
20260503031040 56 151 3.0 14.0 0.00 0.00 0.00 27 1012.9
20260503030540 56 169 0.0 14.0 0.00 0.00 0.00 27 1012.8
20260503030051 56 172 1.0 14.0 0.00 0.00 0.00 28 1012.9
20260503025539 57 149 1.0 8.0 0.00 0.00 0.00 28 1012.8
20260503025038 57 158 1.0 8.0 0.00 0.00 0.00 28 1012.8
20260503024538 57 154 1.0 8.0 0.00 0.00 0.00 27 1012.8
20260503024038 58 150 0.0 8.0 0.00 0.00 0.00 27 1012.8
20260503023537 58 155 0.0 8.0 0.00 0.00 0.00 27 1012.7
20260503023041 58 148 0.0 8.0 0.00 0.00 0.00 27 1012.8
20260503022537 59 146 0.0 4.0 0.00 0.00 0.00 26 1012.7
20260503022141 59 143 0.0 3.0 0.00 0.00 0.00 27 1012.6
20260503021543 59 143 0.0 3.0 0.00 0.00 0.00 26 1012.6
20260503021037 60 138 0.0 2.0 0.00 0.00 0.00 25 1012.6
20260503020537 60 135 0.0 3.0 0.00 0.00 0.00 25 1012.5
20260503020041 61 40 0.0 0.0 0.00 0.00 0.00 24 1012.4
20260503015537 61 40 0.0 0.0 0.00 0.00 0.00 24 1012.4
20260503015037 62 40 0.0 0.0 0.00 0.00 0.00 23 1012.5
20260503014540 62 40 0.0 0.0 0.00 0.00 0.00 22 1012.4
20260503014037 62 149 0.0 4.0 0.00 0.00 0.00 21 1012.4
20260503013536 62 149 0.0 5.0 0.00 0.00 0.00 21 1012.4
20260503013035 63 149 1.0 5.0 0.00 0.00 0.00 20 1012.3
20260503012535 63 149 1.0 5.0 0.00 0.00 0.00 19 1012.3
20260503012038 63 148 0.0 5.0 0.00 0.00 0.00 19 1012.3
20260503011535 63 148 0.0 5.0 0.00 0.00 0.00 18 1012.3
20260503011034 64 148 0.0 9.0 0.00 0.00 0.00 18 1012.3
20260503010533 64 148 0.0 9.0 0.00 0.00 0.00 17 1012.3
20260503010037 64 148 2.0 8.0 0.00 0.00 0.00 17 1012.3
20260503005533 64 148 0.0 10.0 0.00 0.00 0.00 17 1012.3
20260503005032 64 148 4.0 10.0 0.00 0.00 0.00 17 1012.3
20260503004533 64 148 0.0 10.0 0.00 0.00 0.00 17 1012.4
20260503004034 64 148 1.0 10.0 0.00 0.00 0.00 16 1012.4
20260503003530 65 148 3.0 9.0 0.00 0.00 0.00 16 1012.5
20260503003030 65 148 3.0 9.0 0.00 0.00 0.00 15 1012.5
20260503002529 65 151 0.0 9.0 0.00 0.00 0.00 15 1012.6
20260503002032 65 152 2.0 13.0 0.00 0.00 0.00 15 1012.7
20260503001528 65 154 0.0 13.0 0.00 0.00 0.00 15 1012.7
20260503001028 65 150 4.0 13.0 0.00 0.00 0.00 15 1012.8
20260503000526 65 153 0.0 4.0 0.00 0.00 0.00 14 1012.9
20260503000032 65 153 0.0 6.0 0.00 0.00 0.00 14 1013.0
20260502235525 65 152 2.0 10.0 0.00 0.00 0.00 13 1013.0
20260502235026 65 150 2.0 9.0 0.00 0.00 0.00 13 1013.0
20260502234526 65 150 2.0 13.0 0.00 0.00 0.00 13 1013.1
20260502234024 65 150 8.0 13.0 0.00 0.00 0.00 14 1013.1
20260502233523 65 179 1.0 6.0 0.00 0.00 0.00 13 1013.1
20260502233023 65 179 0.0 3.0 0.00 0.00 0.00 13 1013.2
20260502232521 65 179 0.0 0.0 0.00 0.00 0.00 13 1013.3
20260502232020 65 179 0.0 0.0 0.00 0.00 0.00 13 1013.3
20260502231524 65 179 0.0 0.0 0.00 0.00 0.00 14 1013.4
20260502231021 66 179 0.0 0.0 0.00 0.00 0.00 13 1013.5
20260502230519 66 179 0.0 0.0 0.00 0.00 0.00 14 1013.5
20260502230019 66 179 0.0 0.0 0.00 0.00 0.00 14 1013.6
20260502225517 66 179 0.0 0.0 0.00 0.00 0.00 12 1013.6
20260502225019 66 179 0.0 0.0 0.00 0.00 0.00 13 1013.6
20260502224516 66 179 0.0 0.0 0.00 0.00 0.00 13 1013.7
20260502224015 66 179 0.0 0.0 0.00 0.00 0.00 13 1013.7
20260502223515 67 179 0.0 1.0 0.00 0.00 0.00 12 1013.8
20260502223015 67 179 0.0 3.0 0.00 0.00 0.00 13 1013.9
20260502222515 67 179 0.0 4.0 0.00 0.00 0.00 14 1014.0
20260502222013 67 179 0.0 4.0 0.00 0.00 0.00 12 1014.1
20260502221513 67 177 0.0 1.0 0.00 0.00 0.00 11 1014.2
20260502221012 68 177 0.0 2.0 0.00 0.00 0.00 12 1014.3
20260502220511 68 177 0.0 3.0 0.00 0.00 0.00 12 1014.3
20260502220011 68 175 0.0 3.0 0.00 0.00 0.00 11 1014.5
20260502215510 68 168 0.0 4.0 0.00 0.00 0.00 11 1014.5
20260502215008 69 168 0.0 4.0 0.00 0.00 0.00 12 1014.6
20260502214507 69 168 0.0 7.0 0.00 0.00 0.00 12 1014.8
20260502214007 69 168 3.0 7.0 0.00 0.00 0.00 13 1014.7
20260502213506 69 228 0.0 3.0 0.00 0.00 0.00 15 1014.9
20260502213006 69 228 0.0 3.0 0.00 0.00 0.00 14 1015.0
20260502212505 69 228 0.0 4.0 0.00 0.00 0.00 14 1015.1
20260502212008 69 228 0.0 4.0 0.00 0.00 0.00 13 1015.3
20260502211507 69 199 0.0 4.0 0.00 0.00 0.00 14 1015.4
20260502211003 69 208 0.0 3.0 0.00 0.00 0.00 15 1015.5
20260502210502 68 206 0.0 6.0 0.00 0.00 0.00 14 1015.5
20260502210002 69 206 2.0 11.0 0.00 0.00 0.00 14 1015.6
20260502205501 69 200 4.0 11.0 0.00 0.00 0.00 15 1015.8
20260502205100 69 164 5.0 11.0 0.00 0.00 0.00 15 1015.8
20260502204601 69 207 0.0 0.0 0.00 0.00 0.00 15 1015.8
20260502204059 69 207 0.0 5.0 0.00 0.00 0.00 14 1015.9
20260502203600 69 207 0.0 6.0 0.00 0.00 0.00 14 1016.1
20260502203058 69 160 0.0 7.0 0.00 0.00 0.00 14 1016.1
20260502202558 69 198 0.0 8.0 0.00 0.00 0.00 15 1016.1
20260502202157 70 200 0.0 8.0 0.00 0.00 0.00 16 1016.2
20260502201603 69 181 0.0 6.0 0.00 0.00 0.00 15 1016.2
20260502201057 69 181 0.0 6.0 0.00 0.00 0.00 15 1016.4
20260502200556 69 181 0.0 6.0 0.00 0.00 0.00 16 1016.4
20260502200105 69 250 0.0 0.0 0.00 0.00 0.00 15 1016.5
20260502195554 69 251 0.0 3.0 0.00 0.00 0.00 16 1016.6
20260502195056 69 251 0.0 3.0 0.00 0.00 0.00 15 1016.7
20260502194559 69 251 0.0 3.0 0.00 0.00 0.00 14 1016.8
20260502194050 68 251 0.0 3.0 0.00 0.00 0.00 16 1016.9
20260502193549 68 251 0.0 0.0 0.00 0.00 0.00 16 1017.0
20260502193048 67 252 0.0 8.0 0.00 0.00 0.00 18 1017.0